Flag for Canada

Past Weather in Kelowna, British Columbia, Canada — Yesterday and Last 2 Weeks

Now
52 °F

Fog.


Feels Like: 52 °F
Forecast: 79 / 52 °F
Wind: 2 mph from North

Location: Kelowna Airport
Current Time: Sep 18, 2020 at 2:04:33 am
Latest Report: Sep 18, 2020 at 1:00 am
Visibility: 3 mi
Pressure29.90 "Hg
Humidity: 88%
Dew Point: 48 °F
Location of KelownaLocation

Past Weather in Kelowna — Graph

°F

Kelowna Temperature Yesterday

Maximum temperature yesterday: 75 °F (at 3:00 pm)
Minimum temperature yesterday: 50 °F (at 5:00 am)
Average temperature yesterday: 62 °F

High & Low Weather Summary for the Past Weeks

 TemperatureHumidityPressure
High88 °F (Sep 5, 2:23 pm)100% (Sep 17, 5:00 am)30.50 "Hg (Sep 17, 5:00 am)
Low37 °F (Sep 8, 5:00 am)16% (Sep 7, 5:00 pm)29.81 "Hg (Sep 13, 6:00 pm)
Average65 °F57%30.06 "Hg
* Reported Sep 3 12:00 am — Sep 18 12:00 am, Kelowna. Weather by CustomWeather, © 2020

Note: Actual official high and low records may vary slightly from our data, if they occured in-between our weather recording intervals... More about our weather records

Kelowna Weather History for the Previous 24 Hours

Scroll right to see more
 ConditionsComfort  
Time TempWeatherWind HumidityBarometerVisibility
12:00 am
Fri, Sep 18
52 °FFog.No wind94%29.91 "Hg3 mi
11:00 pm
Thu, Sep 17
55 °FFog.3 mph88%29.90 "Hg3 mi
10:00 pm55 °FFog.2 mph88%29.91 "Hg3 mi
9:00 pm57 °FFog.5 mph88%29.91 "Hg3 mi
8:00 pm61 °FClear.3 mph83%29.91 "Hg3 mi
7:00 pm66 °FSunny.3 mph73%29.91 "Hg4 mi
6:00 pm72 °FSunny.5 mph65%29.92 "Hg4 mi
5:00 pm75 °FSunny.6 mph50%29.93 "Hg4 mi
4:00 pm75 °FSunny.6 mph47%29.93 "Hg4 mi
3:00 pm75 °FSunny.7 mph50%29.96 "Hg4 mi
2:00 pm73 °FSunny.5 mph50%29.99 "Hg3 mi
1:28 pm72 °FSunny.2 mph53%30.01 "Hg3 mi
1:11 pm72 °FSunny.No wind53%30.02 "Hg2 mi
12:00 pm68 °FSunny.2 mph60%30.05 "Hg3 mi
11:31 am66 °FSunny.No wind64%30.07 "Hg3 mi
11:00 am66 °FSunny.No wind64%30.08 "Hg2 mi
10:00 am63 °FSunny.No wind77%30.09 "Hg2 mi
9:00 am59 °FSunny.No wind82%30.10 "Hg2 mi
8:00 am54 °FFog.No wind94%30.11 "Hg2 mi
7:00 am52 °FFog.2 mph88%30.09 "Hg2 mi
6:00 am50 °FFog.2 mph88%30.08 "Hg2 mi
5:00 am50 °FFog.3 mph100%30.07 "Hg2 mi
4:00 am52 °FFog.2 mph94%30.06 "Hg2 mi
3:00 am52 °FFog.2 mph88%30.06 "Hg2 mi
2:00 am55 °FFog.3 mph82%30.05 "Hg2 mi
Weather by CustomWeather, © 2020

See weather overview